Wind_Speed
5 8 10 11 12 12 13 14 15 15 16 16 16 17 20 20 13 8 6 6 2 5 5 5 5 7 7 6 9 7 8 14 19 16 13 5 11 5 10 8 10 11 2 7 26
7 9 10 10 10 12 13 14 15 16 17 17 17 18 20 19 4 7 7 9 8 8 8 6 1 3 7 6 7 13 13 21 15 16 10 7 10 11 10 16 10 12 5 17 28
7 8 8 8 9 12 14 16 18 20 21 20 19 18 20 16 3 2 7 9 9 8 8 9 5 2 9 10 13 13 20 15 13 18 12 11 10 10 12 12 21 19 16 24 29
7 8 7 8 10 12 14 17 20 22 23 23 19 18 19 8 3 5 7 9 11 10 6 3 3 1 4 11 16 14 20 21 16 13 11 13 8 10 17 12 11 14 18 24 30
7 7 6 7 9 11 14 18 22 23 22 18 16 16 16 3 3 5 6 7 10 9 7 2 4 2 6 5 12 18 18 18 19 24 18 13 16 15 17 16 7 7 20 26 28
9 8 5 5 9 11 15 20 23 21 15 14 13 13 7 2 4 4 6 8 9 6 6 3 3 4 7 9 12 9 12 24 23 18 19 15 17 8 13 13 10 13 19 24 26
8 8 5 6 9 12 17 22 24 18 12 14 11 12 2 2 6 9 11 11 9 6 4 4 4 6 1 6 10 13 18 18 19 28 14 17 21 14 14 10 17 14 16 19 22
8 8 7 7 11 14 17 22 22 15 12 13 12 10 3 6 11 12 10 10 8 9 7 6 4 6 9 10 14 11 15 18 19 18 22 15 25 21 14 12 17 18 16 16 19
8 8 8 9 12 15 18 22 20 13 15 9 11 7 1 12 15 14 9 5 8 8 8 3 2 6 6 10 11 12 15 18 19 14 16 18 21 19 14 14 14 18 19 21 21
9 9 9 10 13 16 18 21 20 10 18 7 7 5 6 12 19 9 7 6 3 3 1 3 5 7 8 10 15 15 17 19 19 18 15 17 18 7 13 16 16 16 20 21 21
11 10 9 10 13 17 18 15 12 5 13 4 8 7 11 15 12 9 8 4 1 3 6 5 7 11 14 14 18 16 17 21 18 17 17 22 18 12 14 14 16 17 17 19 21
12 11 10 9 11 13 16 9 8 9 10 8 8 11 10 13 6 5 4 3 4 9 5 6 12 15 15 13 15 17 18 19 18 17 17 19 20 17 12 14 17 19 19 20 17
12 11 11 10 10 10 11 12 14 13 5 6 8 8 7 10 6 4 3 3 5 6 12 17 20 21 11 14 16 18 18 19 18 12 16 15 19 21 13 14 15 17 17 18 19
13 12 11 10 5 10 7 15 15 7 3 5 2 2 6 12 4 6 2 4 4 6 15 9 10 11 12 14 15 18 18 21 16 11 13 15 12 20 18 16 15 19 18 17 16
14 13 11 9 7 7 7 12 11 2 3 7 2 7 10 4 9 0 5 3 7 12 8 7 18 17 12 16 14 18 15 16 19 13 17 11 10 10 8 16 17 18 22 20 18
15 14 12 9 8 5 9 11 3 3 1 2 4 6 10 1 4 6 3 2 2 4 10 14 14 7 9 7 7 11 10 12 3 3 7 14 12 11 10 11 11 9 16 18 16
13 14 13 10 7 7 6 5 4 4 1 5 5 7 9 9 5 5 6 4 5 9 10 12 6 9 6 8 4 8 10 4 5 3 4 3 7 8 4 3 1 1 9 12 10
13 13 11 8 5 4 3 3 5 2 3 2 4 9 4 8 4 10 7 6 4 2 4 6 6 12 11 6 5 7 10 2 3 5 6 4 6 3 4 1 0 1 7 8 7
14 12 7 6 3 2 3 4 3 2 4 7 10 5 2 3 3 7 7 6 5 2 3 5 5 8 6 6 5 2 2 6 6 3 3 5 5 6 1 2 2 6 8 6 5
13 10 5 4 2 2 3 3 2 2 4 3 5 2 6 8 8 8 9 3 7 2 6 5 4 8 12 5 2 3 11 4 6 2 3 4 1 3 3 3 5 7 8 7 7
11 4 3 3 4 4 3 2 3 4 4 3 3 6 6 6 7 6 7 2 3 7 4 7 3 7 6 5 7 1 4 6 1 3 4 3 6 6 7 6 6 8 8 9 10
6 3 5 4 3 1 2 1 4 4 2 2 3 5 5 5 7 5 6 6 4 8 4 3 3 1 5 8 6 7 6 5 3 2 2 3 3 5 6 4 6 10 10 11 12
5 3 4 1 3 1 2 3 4 3 3 2 2 2 3 4 5 4 5 4 6 5 5 2 1 4 3 7 2 4 2 2 2 2 2 1 3 2 7 6 7 11 12 13 14
2 2 0 1 1 2 4 4 3 3 4 3 4 1 5 3 1 7 7 4 15 4 7 6 3 4 6 6 3 5 3 2 4 2 1 6 8 6 7 5 8 11 12 14 15
3 2 1 1 1 2 1 2 5 4 3 3 3 4 4 4 9 3 6 12 6 4 5 4 6 3 9 11 7 8 7 5 5 7 5 5 4 8 8 3 10 14 15 15 15
4 3 2 2 1 4 3 2 4 4 3 4 5 4 3 6 8 14 8 7 6 4 10 3 4 5 4 1 2 7 8 7 8 7 9 10 12 5 3 3 9 13 15 15 15
11 8 3 3 3 3 3 3 1 2 3 7 7 8 11 10 8 17 21 22 18 11 7 4 5 4 3 3 7 1 4 1 2 3 5 5 4 6 3 5 5 9 12 13 15
Wind_Direction
33 24 22 22 23 24 26 22 18 13 9 6 5 358 350 344 343 22 47 57 21 359 341 319 257 235 227 229 212 208 237 235 228 232 237 184 205 195 184 167 192 196 211 156 166
27 21 20 25 31 35 28 18 9 3 0 355 356 354 355 350 9 52 65 48 31 11 16 16 352 242 224 222 219 218 230 236 245 238 246 227 220 177 182 195 202 193 171 153 163
22 17 24 42 42 29 20 10 1 356 350 342 341 347 353 350 93 35 15 6 358 345 345 10 353 245 230 230 216 228 243 239 242 242 247 229 205 194 205 207 212 206 180 166 170
19 15 23 38 31 22 14 5 355 347 339 335 332 343 355 17 11 349 12 18 11 12 345 333 359 231 248 232 231 251 243 252 239 244 230 224 222 211 215 215 202 218 190 178 178
4 7 25 31 18 9 3 352 346 342 336 337 340 346 6 18 32 33 36 10 360 3 5 313 268 256 245 251 257 248 254 248 246 247 243 243 225 226 224 225 210 205 187 191 190
353 353 5 15 5 1 351 344 343 345 346 351 347 350 19 38 8 358 332 325 328 330 331 328 304 270 276 261 256 290 283 253 248 248 241 230 235 208 232 216 211 188 195 200 198
345 343 333 346 355 355 349 347 345 346 347 346 340 353 60 35 3 339 327 321 316 298 305 301 283 250 274 264 258 278 270 263 244 240 244 231 246 227 236 200 202 200 195 197 203
342 336 326 330 338 348 346 347 342 341 347 344 348 345 249 352 343 343 332 332 327 315 317 300 267 254 246 269 271 267 261 249 239 231 225 211 240 224 209 194 208 202 197 194 209
343 333 328 326 330 338 338 343 338 333 351 350 358 1 349 347 346 333 319 309 313 307 308 293 197 259 247 248 260 235 253 241 245 216 221 208 240 241 191 200 206 200 196 202 198
344 337 333 332 332 338 337 341 342 335 352 354 356 345 351 323 326 331 324 312 298 318 358 192 224 250 237 239 249 258 248 244 253 216 222 219 233 202 202 194 194 193 192 198 196
346 340 336 333 336 341 346 356 355 336 333 283 300 279 304 323 328 335 312 323 267 262 284 208 256 262 283 263 269 274 263 263 242 240 215 226 221 201 191 194 189 192 191 196 202
346 340 334 329 336 345 354 31 22 316 308 288 295 287 303 320 315 337 335 259 236 293 319 252 260 287 287 268 254 255 254 249 259 226 219 228 223 218 191 201 196 197 199 209 208
346 342 335 329 332 342 1 5 354 343 276 289 298 288 301 327 303 325 331 286 288 302 334 304 281 301 269 246 243 248 251 234 245 211 224 237 228 221 217 211 211 210 208 209 212
352 344 339 333 335 338 352 349 349 347 276 14 309 313 317 323 261 300 294 255 243 295 327 291 292 301 278 245 245 252 244 238 242 226 212 210 222 210 211 211 213 212 209 204 204
351 351 340 337 321 325 328 341 342 352 280 357 317 305 311 271 310 206 330 263 304 332 324 299 300 304 272 251 250 253 255 228 242 240 238 192 232 145 186 217 217 221 221 212 205
343 346 340 329 322 310 321 335 355 240 328 3 314 335 339 328 329 305 284 217 305 330 346 303 306 286 306 306 252 262 236 216 237 250 225 202 226 206 190 214 204 211 205 204 197
336 336 334 323 307 316 320 326 261 254 57 351 332 333 327 328 331 326 332 340 352 326 7 333 344 2 337 280 187 214 230 203 207 189 208 169 203 240 143 176 211 146 191 186 181
336 331 327 319 320 329 332 247 252 43 312 353 308 306 298 351 334 326 323 354 137 337 35 345 341 352 354 337 319 200 216 295 288 187 130 138 206 165 32 91 320 64 153 162 164
337 334 319 317 325 341 284 251 312 2 347 326 313 289 326 344 301 329 360 344 357 230 14 5 281 342 322 317 302 116 145 75 325 260 209 156 209 188 177 145 113 141 150 136 128
338 335 318 311 314 322 257 298 291 277 315 286 296 317 317 339 333 341 353 46 346 332 206 174 310 353 336 295 187 292 144 120 216 300 118 135 3 19 73 192 145 148 141 119 118
339 322 313 349 330 263 260 277 294 287 277 251 295 293 293 313 311 316 337 19 344 342 245 177 186 323 327 11 353 109 179 218 275 308 3 65 82 24 26 16 159 140 124 121 122
329 283 299 320 268 316 267 282 316 290 272 280 273 277 288 322 298 295 313 333 1 322 312 183 312 140 285 318 285 282 312 291 288 125 31 360 41 30 14 25 146 134 125 123 124
302 268 297 301 286 285 289 272 267 281 299 303 280 357 300 292 299 274 317 358 4 327 326 321 186 288 190 354 119 296 320 327 49 327 92 116 77 62 58 88 141 143 136 132 132
278 269 203 78 148 278 307 288 277 265 272 297 299 279 326 285 250 299 306 322 332 324 303 298 271 281 310 314 276 298 287 270 296 283 143 248 292 352 46 102 151 151 148 145 145
215 241 258 271 202 221 257 299 289 294 245 267 171 69 360 302 309 265 314 322 316 345 335 297 289 299 288 290 278 274 293 275 252 279 275 352 297 329 347 9 177 165 158 156 155
209 201 225 200 212 244 199 217 260 278 276 276 271 327 306 279 295 300 317 322 307 297 335 333 283 306 312 92 336 285 284 280 276 277 270 283 289 24 22 80 158 168 169 170 167
211 221 219 184 190 220 236 210 230 260 247 265 299 316 301 313 303 289 284 273 270 287 300 291 303 309 300 291 305 206 24 303 296 268 293 270 26 344 43 75 137 168 179 180 180
Height
1549 1547 1544 1543 1542 1540 1538 1536 1534 1533 1530 1527 1525 1523 1520 1516 1514 1511 1513 1512 1512 1511 1510 1512 1513 1514 1515 1516 1515 1517 1513 1505 1501 1503 1500 1503 1504 1506 1508 1510 1511 1512 1513 1514 1517
1549 1547 1545 1545 1544 1541 1539 1537 1535 1533 1528 1526 1524 1522 1519 1515 1513 1513 1513 1512 1511 1512 1511 1511 1512 1512 1514 1513 1514 1511 1505 1499 1497 1497 1498 1498 1501 1504 1507 1508 1508 1510 1511 1514 1516
1550 1549 1546 1545 1543 1541 1539 1537 1534 1531 1528 1525 1523 1521 1518 1514 1515 1513 1512 1512 1512 1511 1512 1510 1511 1512 1512 1512 1509 1505 1499 1497 1498 1500 1500 1499 1500 1502 1502 1504 1501 1505 1510 1512 1515
1549 1548 1547 1546 1544 1542 1539 1537 1534 1531 1527 1523 1521 1519 1516 1514 1514 1513 1513 1512 1511 1510 1510 1510 1512 1511 1511 1507 1506 1504 1500 1501 1499 1499 1499 1498 1497 1498 1498 1497 1501 1505 1507 1512 1512
1550 1548 1547 1546 1544 1543 1540 1538 1534 1530 1526 1522 1520 1517 1516 1517 1516 1513 1513 1513 1512 1511 1510 1510 1510 1509 1508 1505 1506 1501 1500 1498 1499 1498 1497 1497 1496 1494 1496 1498 1499 1502 1504 1508 1511
1551 1549 1548 1547 1546 1544 1541 1538 1534 1530 1525 1522 1519 1517 1516 1517 1515 1513 1513 1512 1511 1511 1510 1510 1510 1509 1507 1506 1505 1498 1498 1497 1495 1495 1495 1495 1493 1495 1491 1495 1498 1499 1500 1506 1510
1551 1551 1549 1548 1546 1544 1541 1536 1532 1528 1525 1522 1519 1517 1516 1518 1514 1513 1511 1510 1509 1508 1509 1508 1508 1509 1507 1503 1502 1502 1499 1494 1490 1491 1492 1494 1490 1488 1488 1491 1493 1499 1499 1503 1508
1551 1550 1549 1548 1546 1544 1540 1535 1531 1527 1524 1521 1519 1517 1516 1514 1513 1512 1510 1508 1507 1506 1506 1506 1506 1507 1506 1504 1499 1497 1491 1492 1484 1486 1486 1491 1479 1480 1486 1488 1490 1494 1496 1498 1505
1550 1549 1549 1547 1545 1543 1539 1535 1530 1526 1523 1520 1519 1517 1517 1514 1512 1510 1508 1507 1506 1504 1504 1504 1506 1506 1505 1502 1496 1491 1486 1479 1481 1479 1482 1483 1476 1474 1482 1484 1487 1490 1494 1495 1502
1550 1549 1547 1546 1544 1541 1538 1534 1529 1525 1522 1520 1519 1520 1517 1515 1512 1509 1507 1505 1504 1504 1505 1505 1504 1501 1498 1496 1493 1484 1483 1479 1475 1474 1478 1477 1475 1476 1481 1481 1484 1487 1490 1491 1494
1550 1548 1546 1544 1543 1540 1538 1533 1534 1529 1523 1522 1521 1520 1515 1513 1508 1507 1505 1505 1504 1504 1500 1502 1500 1493 1489 1489 1489 1487 1483 1477 1469 1469 1472 1470 1471 1474 1478 1479 1481 1484 1487 1488 1490
1549 1548 1545 1543 1542 1540 1538 1536 1538 1540 1529 1519 1518 1516 1513 1511 1508 1506 1505 1506 1504 1499 1500 1499 1491 1486 1487 1489 1490 1487 1485 1478 1470 1463 1468 1465 1466 1465 1473 1475 1477 1480 1483 1485 1489
1548 1547 1545 1543 1541 1540 1538 1537 1536 1533 1533 1520 1517 1514 1513 1511 1508 1505 1504 1504 1501 1498 1497 1496 1485 1483 1484 1485 1487 1483 1481 1477 1472 1467 1467 1461 1463 1461 1469 1472 1476 1477 1480 1482 1485
1547 1546 1544 1542 1542 1539 1538 1536 1534 1533 1528 1518 1516 1514 1512 1509 1507 1503 1502 1503 1498 1496 1495 1491 1484 1483 1482 1481 1480 1481 1472 1472 1470 1475 1472 1459 1464 1453 1456 1464 1470 1472 1476 1478 1481
1547 1545 1544 1541 1540 1539 1539 1536 1534 1534 1524 1517 1515 1514 1511 1510 1507 1502 1501 1501 1496 1497 1496 1488 1483 1481 1477 1473 1472 1473 1470 1469 1472 1468 1459 1461 1459 1439 1453 1457 1459 1464 1468 1475 1476
1546 1545 1543 1541 1539 1538 1537 1534 1534 1532 1523 1516 1515 1513 1509 1507 1504 1502 1500 1500 1499 1495 1494 1488 1484 1484 1476 1471 1470 1467 1470 1472 1472 1474 1476 1450 1454 1441 1448 1450 1450 1457 1464 1469 1473
1545 1543 1541 1540 1539 1536 1535 1535 1529 1526 1521 1518 1516 1513 1512 1507 1502 1500 1498 1495 1498 1497 1500 1491 1483 1482 1481 1472 1470 1469 1466 1480 1487 1488 1475 1451 1460 1441 1447 1451 1455 1459 1463 1468 1471
1543 1541 1540 1539 1537 1536 1535 1534 1531 1523 1521 1520 1518 1514 1511 1508 1501 1500 1496 1493 1497 1499 1507 1509 1496 1484 1480 1479 1470 1464 1466 1476 1476 1460 1451 1461 1459 1442 1449 1456 1459 1462 1464 1468 1472
1542 1540 1538 1537 1536 1536 1537 1528 1521 1524 1526 1523 1516 1513 1509 1508 1510 1502 1496 1497 1495 1496 1502 1509 1499 1485 1479 1480 1477 1472 1476 1493 1496 1461 1451 1451 1446 1444 1453 1456 1460 1462 1466 1470 1472
1541 1539 1539 1537 1537 1536 1535 1529 1526 1528 1527 1525 1523 1518 1515 1508 1507 1501 1497 1498 1498 1497 1496 1502 1504 1485 1481 1477 1475 1474 1479 1493 1495 1472 1461 1450 1452 1443 1449 1452 1460 1463 1466 1470 1472
1540 1539 1537 1537 1537 1537 1529 1529 1529 1528 1528 1525 1521 1519 1515 1515 1511 1505 1501 1498 1500 1496 1496 1495 1499 1494 1480 1477 1477 1471 1474 1471 1467 1468 1462 1452 1452 1452 1453 1456 1459 1463 1468 1471 1474
1540 1539 1537 1536 1538 1537 1531 1532 1532 1527 1526 1524 1523 1521 1517 1515 1512 1508 1504 1501 1503 1500 1493 1493 1490 1500 1490 1476 1477 1476 1470 1466 1468 1469 1468 1463 1459 1458 1458 1460 1462 1467 1471 1474 1476
1541 1538 1536 1536 1532 1531 1534 1532 1531 1528 1525 1523 1521 1521 1519 1516 1515 1508 1505 1503 1503 1501 1497 1493 1485 1483 1484 1479 1477 1474 1470 1471 1467 1466 1467 1469 1462 1460 1460 1462 1465 1469 1473 1476 1478
1540 1536 1537 1536 1536 1535 1533 1530 1528 1528 1526 1526 1523 1521 1519 1514 1513 1508 1506 1503 1502 1502 1500 1498 1486 1485 1484 1482 1485 1478 1473 1472 1468 1469 1466 1464 1459 1454 1460 1465 1469 1472 1475 1478 1481
1538 1536 1535 1530 1533 1535 1535 1533 1530 1527 1526 1524 1522 1523 1524 1519 1512 1509 1506 1504 1501 1502 1500 1498 1485 1484 1479 1476 1478 1477 1476 1475 1475 1469 1472 1464 1466 1459 1461 1465 1468 1471 1476 1479 1482
1536 1536 1536 1535 1535 1535 1533 1529 1530 1527 1528 1522 1522 1522 1523 1522 1517 1513 1510 1505 1502 1499 1499 1498 1486 1485 1478 1477 1477 1478 1474 1475 1474 1472 1470 1467 1467 1467 1468 1467 1469 1472 1476 1480 1483
1530 1532 1534 1533 1532 1532 1527 1526 1528 1531 1525 1526 1527 1525 1519 1517 1517 1514 1512 1507 1505 1504 1500 1499 1493 1485 1475 1476 1474 1474 1473 1473 1473 1473 1471 1468 1467 1468 1468 1470 1471 1473 1476 1480 1483